Time,TemperatureF,DewpointF,PressureIn,WindDirection,WindDirectionDegrees,WindSpeedMPH,WindSpeedGustMPH,Humidity,HourlyPrecipIn,Conditions,Clouds,dailyrainin,SoftwareType,DateUTC
2013-06-09 00:01:00,61.3,58.3,30.03,WNW,290,3.0,3.0,90,0.00,,,0.00,WeatherCatV1.02B3,2013-06-09 04:01:00,
2013-06-09 00:06:00,61.3,58.3,30.03,WNW,290,0.0,0.0,90,0.00,,,0.00,WeatherCatV1.02B3,2013-06-09 04:06:00,
2013-06-09 00:11:00,61.2,58.2,30.03,WNW,290,0.0,0.0,90,0.00,,,0.00,WeatherCatV1.02B3,2013-06-09 04:11:00,
2013-06-09 00:16:00,61.1,58.1,30.03,WNW,290,0.0,3.0,90,0.00,,,0.00,WeatherCatV1.02B3,2013-06-09 04:16:00,
2013-06-09 00:21:00,61.0,58.0,30.03,West,266,3.0,3.0,90,0.00,,,0.00,WeatherCatV1.02B3,2013-06-09 04:21:00,
2013-06-09 00:26:00,61.0,58.0,30.03,West,266,0.0,5.0,90,0.00,,,0.00,WeatherCatV1.02B3,2013-06-09 04:26:00,
2013-06-09 00:33:00,61.0,57.7,30.04,West,266,0.0,4.0,89,0.00,,,0.00,WeatherCatV1.02B3,2013-06-09 04:33:00,
2013-06-09 00:38:00,61.0,57.7,30.03,WSW,247,0.0,1.0,89,0.00,,,0.00,WeatherCatV1.02B3,2013-06-09 04:38:00,
2013-06-09 00:43:00,60.9,57.6,30.04,WSW,247,0.0,0.0,89,0.00,,,0.00,WeatherCatV1.02B3,2013-06-09 04:43:00,
2013-06-09 00:48:00,60.8,57.5,30.04,WSW,247,0.0,4.0,89,0.00,,,0.00,WeatherCatV1.02B3,2013-06-09 04:48:00,
2013-06-09 00:53:00,60.7,57.4,30.04,WSW,247,0.0,0.0,89,0.00,,,0.00,WeatherCatV1.02B3,2013-06-09 04:53:00,
2013-06-09 00:58:00,60.7,57.7,30.04,WSW,247,0.0,0.0,90,0.00,,,0.00,WeatherCatV1.02B3,2013-06-09 04:58:00,
2013-06-09 01:03:00,60.5,57.5,30.04,WSW,247,1.0,3.0,90,0.00,,,0.00,WeatherCatV1.02B3,2013-06-09 05:03:00,
2013-06-09 01:08:00,60.4,57.5,30.04,WSW,247,1.0,2.0,90,0.00,,,0.00,WeatherCatV1.02B3,2013-06-09 05:08:00,
2013-06-09 01:13:00,60.3,57.4,30.04,WNW,286,0.0,2.0,90,0.00,,,0.00,WeatherCatV1.02B3,2013-06-09 05:13:00,
2013-06-09 01:18:00,60.3,57.4,30.05,WSW,254,0.0,0.0,90,0.00,,,0.00,WeatherCatV1.02B3,2013-06-09 05:18:00,
2013-06-09 01:23:00,60.2,57.3,30.05,WSW,245,0.0,3.0,90,0.00,,,0.00,WeatherCatV1.02B3,2013-06-09 05:23:00,
2013-06-09 01:28:00,60.1,57.2,30.05,WSW,245,3.0,5.0,90,0.00,,,0.00,WeatherCatV1.02B3,2013-06-09 05:28:00,
2013-06-09 01:33:00,60.1,57.2,30.05,WSW,245,0.0,3.0,90,0.00,,,0.00,WeatherCatV1.02B3,2013-06-09 05:33:00,
2013-06-09 01:38:00,60.1,57.2,30.05,WSW,245,0.0,3.0,90,0.00,,,0.00,WeatherCatV1.02B3,2013-06-09 05:38:00,
2013-06-09 01:43:00,60.0,57.1,30.05,WSW,245,0.0,0.0,90,0.00,,,0.00,WeatherCatV1.02B3,2013-06-09 05:43:00,
2013-06-09 01:48:00,60.0,57.1,30.05,WSW,245,0.0,2.0,90,0.00,,,0.00,WeatherCatV1.02B3,2013-06-09 05:48:00,
2013-06-09 01:53:00,59.9,57.0,30.05,WSW,245,0.0,2.0,90,0.00,,,0.00,WeatherCatV1.02B3,2013-06-09 05:53:00,
2013-06-09 01:58:00,59.9,57.0,30.06,WSW,247,2.0,5.0,90,0.00,,,0.00,WeatherCatV1.02B3,2013-06-09 05:58:00,
2013-06-09 02:03:00,59.9,57.3,30.06,WSW,247,2.0,4.0,91,0.00,,,0.00,WeatherCatV1.02B3,2013-06-09 06:03:00,
2013-06-09 02:08:00,59.8,56.9,30.06,WSW,248,0.0,5.0,90,0.00,,,0.00,WeatherCatV1.02B3,2013-06-09 06:08:00,
2013-06-09 02:13:00,59.7,56.8,30.06,WSW,248,0.0,0.0,90,0.00,,,0.00,WeatherCatV1.02B3,2013-06-09 06:13:00,
2013-06-09 02:18:00,59.6,56.7,30.05,WSW,248,0.0,6.0,90,0.00,,,0.00,WeatherCatV1.02B3,2013-06-09 06:18:00,
2013-06-09 02:23:00,59.5,56.6,30.05,WSW,248,3.0,4.0,90,0.00,,,0.00,WeatherCatV1.02B3,2013-06-09 06:23:00,
2013-06-09 02:28:00,59.5,56.9,30.06,WSW,248,2.0,4.0,91,0.00,,,0.00,WeatherCatV1.02B3,2013-06-09 06:28:00,
2013-06-09 02:33:00,59.3,56.7,30.06,WSW,238,5.0,5.0,91,0.00,,,0.00,WeatherCatV1.02B3,2013-06-09 06:33:00,
2013-06-09 02:38:00,59.2,56.6,30.06,West,263,0.0,4.0,91,0.00,,,0.00,WeatherCatV1.02B3,2013-06-09 06:38:00,
2013-06-09 02:43:00,59.1,56.5,30.06,WSW,243,0.0,5.0,91,0.00,,,0.00,WeatherCatV1.02B3,2013-06-09 06:43:00,
2013-06-09 02:48:00,59.0,56.4,30.05,WSW,254,2.0,6.0,91,0.00,,,0.00,WeatherCatV1.02B3,2013-06-09 06:48:00,
2013-06-09 02:53:00,59.0,56.4,30.06,WNW,287,0.0,6.0,91,0.00,,,0.00,WeatherCatV1.02B3,2013-06-09 06:53:00,
2013-06-09 02:58:00,59.0,56.4,30.06,WSW,256,0.0,1.0,91,0.00,,,0.00,WeatherCatV1.02B3,2013-06-09 06:58:00,
2013-06-09 03:03:00,59.0,56.4,30.06,SW,232,3.0,4.0,91,0.00,,,0.00,WeatherCatV1.02B3,2013-06-09 07:03:00,
2013-06-09 03:08:00,59.0,56.4,30.06,WSW,244,2.0,7.0,91,0.00,,,0.00,WeatherCatV1.02B3,2013-06-09 07:08:00,
2013-06-09 03:13:00,59.0,56.4,30.06,West,280,5.0,7.0,91,0.00,,,0.00,WeatherCatV1.02B3,2013-06-09 07:13:00,
2013-06-09 03:18:00,59.1,56.2,30.06,WSW,256,0.0,3.0,90,0.00,,,0.00,WeatherCatV1.02B3,2013-06-09 07:18:00,
2013-06-09 03:23:00,59.1,56.2,30.06,SW,228,0.0,4.0,90,0.00,,,0.00,WeatherCatV1.02B3,2013-06-09 07:23:00,
2013-06-09 03:28:00,59.1,56.2,30.06,West,268,0.0,8.0,90,0.00,,,0.00,WeatherCatV1.02B3,2013-06-09 07:28:00,
2013-06-09 03:33:00,59.1,56.2,30.06,WSW,244,0.0,0.0,90,0.00,,,0.00,WeatherCatV1.02B3,2013-06-09 07:33:00,
2013-06-09 03:38:00,59.1,56.2,30.07,SW,229,0.0,4.0,90,0.00,,,0.00,WeatherCatV1.02B3,2013-06-09 07:38:00,
2013-06-09 03:43:00,59.0,56.1,30.07,West,266,0.0,2.0,90,0.00,,,0.00,WeatherCatV1.02B3,2013-06-09 07:43:00,
2013-06-09 03:48:00,58.9,56.0,30.07,West,266,0.0,3.0,90,0.00,,,0.00,WeatherCatV1.02B3,2013-06-09 07:48:00,
2013-06-09 03:53:00,58.9,56.0,30.07,West,266,0.0,3.0,90,0.00,,,0.00,WeatherCatV1.02B3,2013-06-09 07:53:00,
2013-06-09 03:58:00,58.7,55.8,30.07,West,266,2.0,3.0,90,0.00,,,0.00,WeatherCatV1.02B3,2013-06-09 07:58:00,
2013-06-09 04:03:00,58.7,55.8,30.07,West,266,2.0,2.0,90,0.00,,,0.00,WeatherCatV1.02B3,2013-06-09 08:03:00,
2013-06-09 04:08:00,58.6,56.0,30.07,West,266,1.0,2.0,91,0.00,,,0.00,WeatherCatV1.02B3,2013-06-09 08:08:00,
2013-06-09 04:13:00,58.5,55.9,30.07,West,267,0.0,2.0,91,0.00,,,0.00,WeatherCatV1.02B3,2013-06-09 08:13:00,
2013-06-09 04:18:00,58.5,55.9,30.07,West,267,0.0,1.0,91,0.00,,,0.00,WeatherCatV1.02B3,2013-06-09 08:18:00,
2013-06-09 04:23:00,58.4,55.8,30.08,West,264,0.0,2.0,91,0.00,,,0.00,WeatherCatV1.02B3,2013-06-09 08:23:00,
2013-06-09 04:28:00,58.3,55.7,30.08,West,264,0.0,2.0,91,0.00,,,0.00,WeatherCatV1.02B3,2013-06-09 08:28:00,
2013-06-09 04:33:00,58.2,55.6,30.08,West,264,0.0,3.0,91,0.00,,,0.00,WeatherCatV1.02B3,2013-06-09 08:33:00,
2013-06-09 04:38:00,58.1,55.5,30.08,SW,232,3.0,6.0,91,0.00,,,0.00,WeatherCatV1.02B3,2013-06-09 08:38:00,
2013-06-09 04:40:00,58.0,55.4,30.08,SW,232,0.0,0.0,91,0.00,,,0.00,WeatherCatV1.02B3,2013-06-09 08:40:00,
2013-06-09 04:45:00,57.9,55.3,30.08,WNW,282,2.0,5.0,91,0.00,,,0.00,WeatherCatV1.02B3,2013-06-09 08:45:00,
2013-06-09 04:50:00,57.9,55.3,30.08,WSW,242,0.0,3.0,91,0.00,,,0.00,WeatherCatV1.02B3,2013-06-09 08:50:00,
2013-06-09 04:55:00,57.8,55.2,30.08,SSW,209,3.0,6.0,91,0.00,,,0.00,WeatherCatV1.02B3,2013-06-09 08:55:00,
2013-06-09 05:00:00,57.6,55.3,30.08,SW,227,2.0,4.0,92,0.00,,,0.00,WeatherCatV1.02B3,2013-06-09 09:00:00,
2013-06-09 05:05:00,57.5,55.2,30.08,SW,227,4.0,4.0,92,0.00,,,0.00,WeatherCatV1.02B3,2013-06-09 09:05:00,
2013-06-09 05:10:00,57.4,55.1,30.08,SW,227,2.0,2.0,92,0.00,,,0.00,WeatherCatV1.02B3,2013-06-09 09:10:00,
2013-06-09 05:15:00,57.3,55.0,30.08,SW,221,0.0,0.0,92,0.00,,,0.00,WeatherCatV1.02B3,2013-06-09 09:15:00,
2013-06-09 05:20:00,57.3,55.0,30.09,WSW,247,1.0,5.0,92,0.00,,,0.00,WeatherCatV1.02B3,2013-06-09 09:20:00,
2013-06-09 05:25:00,57.3,55.0,30.09,WSW,247,0.0,3.0,92,0.00,,,0.00,WeatherCatV1.02B3,2013-06-09 09:25:00,
2013-06-09 05:30:00,57.2,54.9,30.09,WSW,245,0.0,5.0,92,0.00,,,0.00,WeatherCatV1.02B3,2013-06-09 09:30:00,
2013-06-09 05:35:00,57.1,54.8,30.09,WSW,245,0.0,4.0,92,0.00,,,0.00,WeatherCatV1.02B3,2013-06-09 09:35:00,
2013-06-09 05:40:00,57.1,54.8,30.09,WSW,255,1.0,5.0,92,0.00,,,0.00,WeatherCatV1.02B3,2013-06-09 09:40:00,
2013-06-09 05:45:00,57.1,54.8,30.09,WSW,255,1.0,3.0,92,0.00,,,0.00,WeatherCatV1.02B3,2013-06-09 09:45:00,
2013-06-09 05:50:00,57.1,54.8,30.09,WSW,255,0.0,1.0,92,0.00,,,0.00,WeatherCatV1.02B3,2013-06-09 09:50:00,
2013-06-09 05:55:00,57.1,54.8,30.09,WSW,250,0.0,0.0,92,0.00,,,0.00,WeatherCatV1.02B3,2013-06-09 09:55:00,
2013-06-09 06:00:00,57.1,54.8,30.09,West,267,0.0,5.0,92,0.00,,,0.00,WeatherCatV1.02B3,2013-06-09 10:00:00,
2013-06-09 06:05:00,57.3,55.0,30.10,WSW,247,0.0,0.0,92,0.00,,,0.00,WeatherCatV1.02B3,2013-06-09 10:05:00,
2013-06-09 06:12:00,57.4,55.1,30.10,SW,229,3.0,3.0,92,0.00,,,0.00,WeatherCatV1.02B3,2013-06-09 10:12:00,
2013-06-09 06:17:00,57.6,55.3,30.10,WSW,242,2.0,6.0,92,0.00,,,0.00,WeatherCatV1.02B3,2013-06-09 10:17:00,
2013-06-09 06:22:00,57.7,55.1,30.10,WNW,293,0.0,6.0,91,0.00,,,0.00,WeatherCatV1.02B3,2013-06-09 10:22:00,
2013-06-09 06:27:00,57.9,55.3,30.10,West,281,5.0,6.0,91,0.00,,,0.00,WeatherCatV1.02B3,2013-06-09 10:27:00,
2013-06-09 06:32:00,58.1,55.2,30.10,WSW,243,5.0,8.0,90,0.00,,,0.00,WeatherCatV1.02B3,2013-06-09 10:32:00,
2013-06-09 06:37:00,58.4,55.5,30.10,West,274,3.0,7.0,90,0.00,,,0.00,WeatherCatV1.02B3,2013-06-09 10:37:00,
2013-06-09 06:42:00,58.6,55.7,30.11,SW,234,4.0,9.0,90,0.00,,,0.00,WeatherCatV1.02B3,2013-06-09 10:42:00,
2013-06-09 06:47:00,58.8,55.6,30.11,West,278,0.0,4.0,89,0.00,,,0.00,WeatherCatV1.02B3,2013-06-09 10:47:00,
2013-06-09 06:52:00,59.0,55.8,30.11,WNW,296,3.0,5.0,89,0.00,,,0.00,WeatherCatV1.02B3,2013-06-09 10:52:00,
2013-06-09 06:57:00,59.2,56.0,30.11,West,271,2.0,5.0,89,0.00,,,0.00,WeatherCatV1.02B3,2013-06-09 10:57:00,
2013-06-09 07:02:00,59.4,56.2,30.12,WSW,248,0.0,7.0,89,0.00,,,0.00,WeatherCatV1.02B3,2013-06-09 11:02:00,
2013-06-09 07:07:00,59.7,56.1,30.12,West,259,4.0,6.0,88,0.00,,,0.00,WeatherCatV1.02B3,2013-06-09 11:07:00,
2013-06-09 07:12:00,60.0,56.4,30.12,West,266,0.0,6.0,88,0.00,,,0.00,WeatherCatV1.02B3,2013-06-09 11:12:00,
2013-06-09 07:17:00,60.3,56.4,30.12,WSW,243,5.0,5.0,87,0.00,,,0.00,WeatherCatV1.02B3,2013-06-09 11:17:00,
2013-06-09 07:22:00,60.6,56.7,30.12,WSW,257,5.0,7.0,87,0.00,,,0.00,WeatherCatV1.02B3,2013-06-09 11:22:00,
2013-06-09 07:27:00,61.0,56.8,30.13,WNW,288,7.0,7.0,86,0.00,,,0.00,WeatherCatV1.02B3,2013-06-09 11:27:00,
2013-06-09 07:32:00,61.3,56.7,30.12,NW,308,0.0,6.0,85,0.00,,,0.00,WeatherCatV1.02B3,2013-06-09 11:32:00,
2013-06-09 07:37:00,61.8,56.9,30.12,WNW,284,1.0,6.0,84,0.00,,,0.00,WeatherCatV1.02B3,2013-06-09 11:37:00,
2013-06-09 07:42:00,62.4,57.5,30.12,South,173,0.0,1.0,84,0.00,,,0.00,WeatherCatV1.02B3,2013-06-09 11:42:00,
2013-06-09 07:47:00,63.0,57.4,30.13,WSW,250,7.0,7.0,82,0.00,,,0.00,WeatherCatV1.02B3,2013-06-09 11:47:00,
2013-06-09 07:52:00,63.4,57.1,30.13,WNW,300,5.0,9.0,80,0.00,,,0.00,WeatherCatV1.02B3,2013-06-09 11:52:00,
2013-06-09 07:57:00,63.6,57.3,30.13,WNW,293,2.0,6.0,80,0.00,,,0.00,WeatherCatV1.02B3,2013-06-09 11:57:00,
2013-06-09 08:02:00,63.9,56.9,30.13,West,281,2.0,13.0,78,0.00,,,0.00,WeatherCatV1.02B3,2013-06-09 12:02:00,
2013-06-09 08:07:00,64.0,57.0,30.13,WSW,250,11.0,11.0,78,0.00,,,0.00,WeatherCatV1.02B3,2013-06-09 12:07:00,
2013-06-09 08:12:00,64.2,57.2,30.12,West,261,6.0,9.0,78,0.00,,,0.00,WeatherCatV1.02B3,2013-06-09 12:12:00,
2013-06-09 08:17:00,64.5,57.1,30.13,WNW,293,2.0,9.0,77,0.00,,,0.00,WeatherCatV1.02B3,2013-06-09 12:17:00,
2013-06-09 08:22:00,64.9,56.8,30.13,WNW,297,7.0,14.0,75,0.00,,,0.00,WeatherCatV1.02B3,2013-06-09 12:22:00,
2013-06-09 08:27:00,65.0,56.9,30.13,West,281,4.0,8.0,75,0.00,,,0.00,WeatherCatV1.02B3,2013-06-09 12:27:00,
2013-06-09 08:32:00,65.2,56.7,30.13,NW,304,10.0,10.0,74,0.00,,,0.00,WeatherCatV1.02B3,2013-06-09 12:32:00,
2013-06-09 08:37:00,65.3,57.2,30.13,West,279,4.0,11.0,75,0.00,,,0.00,WeatherCatV1.02B3,2013-06-09 12:37:00,
2013-06-09 08:42:00,65.7,56.8,30.13,NW,311,3.0,8.0,73,0.00,,,0.00,WeatherCatV1.02B3,2013-06-09 12:42:00,
2013-06-09 08:47:00,66.0,57.5,30.13,WNW,287,8.0,10.0,74,0.00,,,0.00,WeatherCatV1.02B3,2013-06-09 12:47:00,
2013-06-09 08:52:00,66.1,57.6,30.13,WNW,299,8.0,9.0,74,0.00,,,0.00,WeatherCatV1.02B3,2013-06-09 12:52:00,
2013-06-09 08:57:00,66.3,57.0,30.13,WNW,286,4.0,9.0,72,0.00,,,0.00,WeatherCatV1.02B3,2013-06-09 12:57:00,
2013-06-09 09:02:00,66.5,57.2,30.13,WNW,297,7.0,12.0,72,0.00,,,0.00,WeatherCatV1.02B3,2013-06-09 13:02:00,
2013-06-09 09:07:00,66.7,57.4,30.13,WNW,300,6.0,6.0,72,0.00,,,0.00,WeatherCatV1.02B3,2013-06-09 13:07:00,
2013-06-09 09:12:00,67.0,56.9,30.13,WSW,253,5.0,10.0,70,0.00,,,0.00,WeatherCatV1.02B3,2013-06-09 13:12:00,
2013-06-09 09:17:00,67.2,57.1,30.13,West,277,0.0,12.0,70,0.00,,,0.00,WeatherCatV1.02B3,2013-06-09 13:17:00,
2013-06-09 09:22:00,67.1,56.6,30.13,West,279,5.0,13.0,69,0.00,,,0.00,WeatherCatV1.02B3,2013-06-09 13:22:00,
2013-06-09 09:27:00,67.4,57.7,30.13,WNW,298,0.0,3.0,71,0.00,,,0.00,WeatherCatV1.02B3,2013-06-09 13:27:00,
2013-06-09 09:32:00,67.9,57.3,30.13,WNW,302,2.0,9.0,69,0.00,,,0.00,WeatherCatV1.02B3,2013-06-09 13:32:00,
2013-06-09 09:37:00,68.1,57.9,30.13,WNW,284,0.0,8.0,70,0.00,,,0.00,WeatherCatV1.02B3,2013-06-09 13:37:00,
2013-06-09 09:42:00,68.5,57.5,30.13,NNW,335,5.0,11.0,68,0.00,,,0.00,WeatherCatV1.02B3,2013-06-09 13:42:00,
2013-06-09 09:47:00,68.6,57.6,30.13,West,277,2.0,10.0,68,0.00,,,0.00,WeatherCatV1.02B3,2013-06-09 13:47:00,
2013-06-09 09:52:00,68.8,57.8,30.13,West,278,2.0,4.0,68,0.00,,,0.00,WeatherCatV1.02B3,2013-06-09 13:52:00,
2013-06-09 09:57:00,69.1,56.8,30.12,NW,319,3.0,8.0,65,0.00,,,0.00,WeatherCatV1.02B3,2013-06-09 13:57:00,
2013-06-09 10:02:00,69.4,57.1,30.12,West,263,3.0,8.0,65,0.00,,,0.00,WeatherCatV1.02B3,2013-06-09 14:02:00,
2013-06-09 10:07:00,69.8,57.5,30.12,NW,318,2.0,7.0,65,0.00,,,0.00,WeatherCatV1.02B3,2013-06-09 14:07:00,
2013-06-09 10:12:00,69.9,55.8,30.12,NW,304,11.0,11.0,61,0.00,,,0.00,WeatherCatV1.02B3,2013-06-09 14:12:00,
2013-06-09 10:17:00,70.1,56.9,30.12,WNW,287,7.0,7.0,63,0.00,,,0.00,WeatherCatV1.02B3,2013-06-09 14:17:00,
2013-06-09 10:22:00,70.6,57.4,30.12,WNW,292,4.0,4.0,63,0.00,,,0.00,WeatherCatV1.02B3,2013-06-09 14:22:00,
2013-06-09 10:27:00,70.9,56.3,30.12,West,278,2.0,7.0,60,0.00,,,0.00,WeatherCatV1.02B3,2013-06-09 14:27:00,
2013-06-09 10:32:00,71.6,56.0,30.12,WNW,293,4.0,7.0,58,0.00,,,0.00,WeatherCatV1.02B3,2013-06-09 14:32:00,
2013-06-09 10:37:00,71.6,56.0,30.11,West,279,2.0,6.0,58,0.00,,,0.00,WeatherCatV1.02B3,2013-06-09 14:37:00,
2013-06-09 10:42:00,71.8,56.2,30.11,West,271,1.0,10.0,58,0.00,,,0.00,WeatherCatV1.02B3,2013-06-09 14:42:00,
2013-06-09 10:47:00,72.1,56.0,30.11,SW,236,0.0,1.0,57,0.00,,,0.00,WeatherCatV1.02B3,2013-06-09 14:47:00,
2013-06-09 10:52:00,72.6,56.5,30.11,WNW,300,2.0,8.0,57,0.00,,,0.00,WeatherCatV1.02B3,2013-06-09 14:52:00,
2013-06-09 10:57:00,72.7,56.6,30.11,WNW,283,0.0,6.0,57,0.00,,,0.00,WeatherCatV1.02B3,2013-06-09 14:57:00,
2013-06-09 11:02:00,72.7,57.5,30.11,West,261,0.0,3.0,59,0.00,,,0.00,WeatherCatV1.02B3,2013-06-09 15:02:00,
2013-06-09 11:07:00,73.2,58.5,30.11,NNW,328,5.0,6.0,60,0.00,,,0.00,WeatherCatV1.02B3,2013-06-09 15:07:00,
2013-06-09 11:12:00,73.4,58.7,30.11,West,276,3.0,4.0,60,0.00,,,0.00,WeatherCatV1.02B3,2013-06-09 15:12:00,
2013-06-09 11:17:00,73.7,57.0,30.11,NW,307,3.0,7.0,56,0.00,,,0.00,WeatherCatV1.02B3,2013-06-09 15:17:00,
2013-06-09 11:22:00,73.9,57.7,30.11,West,281,3.0,4.0,57,0.00,,,0.00,WeatherCatV1.02B3,2013-06-09 15:22:00,
2013-06-09 11:27:00,73.6,56.4,30.11,NW,304,2.0,8.0,55,0.00,,,0.00,WeatherCatV1.02B3,2013-06-09 15:27:00,
2013-06-09 11:32:00,73.5,57.3,30.11,West,281,4.0,9.0,57,0.00,,,0.00,WeatherCatV1.02B3,2013-06-09 15:32:00,
2013-06-09 11:37:00,73.6,56.4,30.11,North,350,1.0,11.0,55,0.00,,,0.00,WeatherCatV1.02B3,2013-06-09 15:37:00,
2013-06-09 11:42:00,73.6,56.4,30.11,WNW,301,2.0,4.0,55,0.00,,,0.00,WeatherCatV1.02B3,2013-06-09 15:42:00,
2013-06-09 11:47:00,74.0,56.3,30.11,NW,314,0.0,2.0,54,0.00,,,0.00,WeatherCatV1.02B3,2013-06-09 15:47:00,
2013-06-09 11:52:00,74.6,56.8,30.10,NW,313,0.0,3.0,54,0.00,,,0.00,WeatherCatV1.02B3,2013-06-09 15:52:00,
2013-06-09 11:57:00,75.2,57.9,30.10,West,281,4.0,7.0,55,0.00,,,0.00,WeatherCatV1.02B3,2013-06-09 15:57:00,
2013-06-09 12:02:00,75.5,57.7,30.10,NW,325,5.0,9.0,54,0.00,,,0.00,WeatherCatV1.02B3,2013-06-09 16:02:00,
2013-06-09 12:07:00,75.0,55.6,30.10,WNW,295,0.0,4.0,51,0.00,,,0.00,WeatherCatV1.02B3,2013-06-09 16:07:00,
2013-06-09 12:12:00,75.3,57.0,30.10,SW,225,3.0,9.0,53,0.00,,,0.00,WeatherCatV1.02B3,2013-06-09 16:12:00,
2013-06-09 12:17:00,75.6,57.2,30.11,WNW,284,2.0,7.0,53,0.00,,,0.00,WeatherCatV1.02B3,2013-06-09 16:17:00,
2013-06-09 12:22:00,76.0,58.1,30.10,WNW,302,6.0,6.0,54,0.00,,,0.00,WeatherCatV1.02B3,2013-06-09 16:22:00,
2013-06-09 12:27:00,76.4,58.0,30.10,NW,304,4.0,6.0,53,0.00,,,0.00,WeatherCatV1.02B3,2013-06-09 16:27:00,
2013-06-09 12:34:00,76.3,56.3,30.10,WNW,293,3.0,10.0,50,0.00,,,0.00,WeatherCatV1.02B3,2013-06-09 16:34:00,
2013-06-09 12:39:00,75.9,55.9,30.10,West,279,10.0,11.0,50,0.00,,,0.00,WeatherCatV1.02B3,2013-06-09 16:39:00,
2013-06-09 12:44:00,75.6,57.2,30.10,WNW,300,4.0,10.0,53,0.00,,,0.00,WeatherCatV1.02B3,2013-06-09 16:44:00,
2013-06-09 12:49:00,75.5,56.6,30.10,West,278,4.0,4.0,52,0.00,,,0.00,WeatherCatV1.02B3,2013-06-09 16:49:00,
2013-06-09 12:54:00,75.7,57.3,30.10,NW,311,2.0,3.0,53,0.00,,,0.00,WeatherCatV1.02B3,2013-06-09 16:54:00,
2013-06-09 12:59:00,75.4,56.0,30.10,West,281,9.0,10.0,51,0.00,,,0.00,WeatherCatV1.02B3,2013-06-09 16:59:00,
2013-06-09 13:04:00,75.4,56.5,30.10,WNW,297,4.0,9.0,52,0.00,,,0.00,WeatherCatV1.02B3,2013-06-09 17:04:00,
2013-06-09 13:09:00,75.6,54.5,30.10,NW,323,6.0,15.0,48,0.00,,,0.00,WeatherCatV1.02B3,2013-06-09 17:09:00,
2013-06-09 13:14:00,75.8,55.8,30.10,NE,34,3.0,5.0,50,0.00,,,0.00,WeatherCatV1.02B3,2013-06-09 17:14:00,
2013-06-09 13:19:00,76.1,55.0,30.10,West,278,2.0,10.0,48,0.00,,,0.00,WeatherCatV1.02B3,2013-06-09 17:19:00,
2013-06-09 13:24:00,75.7,55.7,30.10,WNW,290,4.0,9.0,50,0.00,,,0.00,WeatherCatV1.02B3,2013-06-09 17:24:00,
2013-06-09 13:29:00,75.9,56.5,30.10,WNW,287,4.0,8.0,51,0.00,,,0.00,WeatherCatV1.02B3,2013-06-09 17:29:00,
2013-06-09 13:34:00,76.0,55.4,30.10,West,278,3.0,12.0,49,0.00,,,0.00,WeatherCatV1.02B3,2013-06-09 17:34:00,
2013-06-09 13:39:00,75.9,55.9,30.10,West,269,1.0,5.0,50,0.00,,,0.00,WeatherCatV1.02B3,2013-06-09 17:39:00,
2013-06-09 13:44:00,76.3,55.7,30.09,WSW,247,4.0,9.0,49,0.00,,,0.00,WeatherCatV1.02B3,2013-06-09 17:44:00,
2013-06-09 13:49:00,76.3,55.7,30.09,WNW,283,6.0,13.0,49,0.00,,,0.00,WeatherCatV1.02B3,2013-06-09 17:49:00,
2013-06-09 13:54:00,76.2,56.2,30.09,South,181,0.0,9.0,50,0.00,,,0.00,WeatherCatV1.02B3,2013-06-09 17:54:00,
2013-06-09 13:56:00,76.5,57.0,30.09,WNW,294,6.0,10.0,51,0.00,,,0.00,WeatherCatV1.02B3,2013-06-09 17:56:00,
2013-06-09 14:01:00,76.4,56.4,30.09,WNW,282,5.0,5.0,50,0.00,,,0.00,WeatherCatV1.02B3,2013-06-09 18:01:00,
2013-06-09 14:06:00,76.3,56.8,30.09,WSW,248,9.0,10.0,51,0.00,,,0.00,WeatherCatV1.02B3,2013-06-09 18:06:00,
2013-06-09 14:11:00,75.7,56.8,30.09,WNW,296,0.0,1.0,52,0.00,,,0.00,WeatherCatV1.02B3,2013-06-09 18:11:00,
2013-06-09 14:16:00,75.8,56.9,30.09,West,279,4.0,10.0,52,0.00,,,0.00,WeatherCatV1.02B3,2013-06-09 18:16:00,
2013-06-09 14:21:00,76.1,56.6,30.09,WNW,288,4.0,13.0,51,0.00,,,0.00,WeatherCatV1.02B3,2013-06-09 18:21:00,
2013-06-09 14:26:00,76.5,57.0,30.09,WSW,244,10.0,10.0,51,0.00,,,0.00,WeatherCatV1.02B3,2013-06-09 18:26:00,
2013-06-09 14:31:00,76.7,55.5,30.09,West,277,2.0,12.0,48,0.00,,,0.00,WeatherCatV1.02B3,2013-06-09 18:31:00,
2013-06-09 14:36:00,77.1,57.0,30.09,NW,309,2.0,3.0,50,0.00,,,0.00,WeatherCatV1.02B3,2013-06-09 18:36:00,
2013-06-09 14:41:00,77.4,56.2,30.09,WNW,284,5.0,10.0,48,0.00,,,0.00,WeatherCatV1.02B3,2013-06-09 18:41:00,
2013-06-09 14:46:00,76.8,56.2,30.09,West,271,0.0,7.0,49,0.00,,,0.00,WeatherCatV1.02B3,2013-06-09 18:46:00,
2013-06-09 14:51:00,76.8,58.9,30.09,WNW,286,3.0,3.0,54,0.00,,,0.00,WeatherCatV1.02B3,2013-06-09 18:51:00,
2013-06-09 14:56:00,77.4,56.2,30.09,WNW,286,11.0,15.0,48,0.00,,,0.00,WeatherCatV1.02B3,2013-06-09 18:56:00,
2013-06-09 15:01:00,77.5,57.4,30.09,SSW,213,2.0,11.0,50,0.00,,,0.00,WeatherCatV1.02B3,2013-06-09 19:01:00,
2013-06-09 15:06:00,77.1,56.4,30.09,WSW,238,3.0,8.0,49,0.00,,,0.00,WeatherCatV1.02B3,2013-06-09 19:06:00,
2013-06-09 15:11:00,77.0,57.5,30.09,WNW,283,0.0,3.0,51,0.00,,,0.00,WeatherCatV1.02B3,2013-06-09 19:11:00,
2013-06-09 15:16:00,77.2,58.2,30.09,WSW,253,4.0,8.0,52,0.00,,,0.00,WeatherCatV1.02B3,2013-06-09 19:16:00,
2013-06-09 15:21:00,77.0,56.9,30.09,WNW,284,8.0,8.0,50,0.00,,,0.00,WeatherCatV1.02B3,2013-06-09 19:21:00,
2013-06-09 15:26:00,76.3,55.7,30.09,WNW,296,3.0,8.0,49,0.00,,,0.00,WeatherCatV1.02B3,2013-06-09 19:26:00,
2013-06-09 15:31:00,76.0,56.5,30.09,WSW,254,5.0,7.0,51,0.00,,,0.00,WeatherCatV1.02B3,2013-06-09 19:31:00,
2013-06-09 15:36:00,76.3,57.9,30.09,WSW,243,0.0,8.0,53,0.00,,,0.00,WeatherCatV1.02B3,2013-06-09 19:36:00,
2013-06-09 15:41:00,76.3,58.9,30.09,West,272,0.0,4.0,55,0.00,,,0.00,WeatherCatV1.02B3,2013-06-09 19:41:00,
2013-06-09 15:46:00,75.8,56.9,30.09,West,278,2.0,4.0,52,0.00,,,0.00,WeatherCatV1.02B3,2013-06-09 19:46:00,
2013-06-09 15:51:00,75.6,57.2,30.09,West,270,1.0,4.0,53,0.00,,,0.00,WeatherCatV1.02B3,2013-06-09 19:51:00,
2013-06-09 15:56:00,75.5,57.2,30.09,WSW,244,1.0,9.0,53,0.00,,,0.00,WeatherCatV1.02B3,2013-06-09 19:56:00,
2013-06-09 16:01:00,75.7,57.9,30.09,West,280,3.0,4.0,54,0.00,,,0.00,WeatherCatV1.02B3,2013-06-09 20:01:00,
2013-06-09 16:06:00,75.9,57.5,30.09,West,274,3.0,7.0,53,0.00,,,0.00,WeatherCatV1.02B3,2013-06-09 20:06:00,
2013-06-09 16:11:00,75.7,57.9,30.09,WNW,289,4.0,5.0,54,0.00,,,0.00,WeatherCatV1.02B3,2013-06-09 20:11:00,
2013-06-09 16:17:00,75.4,58.1,30.09,WNW,286,3.0,6.0,55,0.00,,,0.00,WeatherCatV1.02B3,2013-06-09 20:17:00,
2013-06-09 16:22:00,75.3,58.5,30.09,WNW,285,3.0,5.0,56,0.00,,,0.00,WeatherCatV1.02B3,2013-06-09 20:22:00,
2013-06-09 16:27:00,75.4,57.6,30.09,WSW,246,3.0,5.0,54,0.00,,,0.00,WeatherCatV1.02B3,2013-06-09 20:27:00,
2013-06-09 16:32:00,75.5,57.7,30.09,SSW,192,3.0,7.0,54,0.00,,,0.00,WeatherCatV1.02B3,2013-06-09 20:32:00,
2013-06-09 16:37:00,75.8,59.0,30.09,WNW,292,5.0,6.0,56,0.00,,,0.00,WeatherCatV1.02B3,2013-06-09 20:37:00,
2013-06-09 16:42:00,76.0,57.6,30.09,WNW,286,5.0,6.0,53,0.00,,,0.00,WeatherCatV1.02B3,2013-06-09 20:42:00,
2013-06-09 16:47:00,75.7,56.8,30.09,West,265,8.0,9.0,52,0.00,,,0.00,WeatherCatV1.02B3,2013-06-09 20:47:00,
2013-06-09 16:52:00,75.5,56.6,30.09,West,273,1.0,4.0,52,0.00,,,0.00,WeatherCatV1.02B3,2013-06-09 20:52:00,
2013-06-09 16:57:00,75.5,57.2,30.09,WNW,294,2.0,6.0,53,0.00,,,0.00,WeatherCatV1.02B3,2013-06-09 20:57:00,
2013-06-09 17:02:00,75.9,58.0,30.09,SW,214,4.0,4.0,54,0.00,,,0.00,WeatherCatV1.02B3,2013-06-09 21:02:00,
2013-06-09 17:07:00,76.1,57.2,30.09,WNW,289,0.0,9.0,52,0.00,,,0.00,WeatherCatV1.02B3,2013-06-09 21:07:00,
2013-06-09 17:12:00,76.2,57.3,30.09,WNW,302,0.0,4.0,52,0.00,,,0.00,WeatherCatV1.02B3,2013-06-09 21:12:00,
2013-06-09 17:17:00,76.1,57.2,30.09,WNW,294,4.0,4.0,52,0.00,,,0.00,WeatherCatV1.02B3,2013-06-09 21:17:00,
2013-06-09 17:22:00,76.0,58.1,30.08,NW,311,0.0,1.0,54,0.00,,,0.00,WeatherCatV1.02B3,2013-06-09 21:22:00,
2013-06-09 17:27:00,76.1,57.7,30.09,WNW,286,0.0,4.0,53,0.00,,,0.00,WeatherCatV1.02B3,2013-06-09 21:27:00,
2013-06-09 17:32:00,76.1,56.6,30.09,West,281,0.0,5.0,51,0.00,,,0.00,WeatherCatV1.02B3,2013-06-09 21:32:00,
2013-06-09 17:37:00,76.1,56.1,30.09,West,267,5.0,10.0,50,0.00,,,0.00,WeatherCatV1.02B3,2013-06-09 21:37:00,
2013-06-09 17:42:00,76.1,56.6,30.09,West,269,0.0,6.0,51,0.00,,,0.00,WeatherCatV1.02B3,2013-06-09 21:42:00,
2013-06-09 17:47:00,76.2,57.8,30.09,NW,311,5.0,5.0,53,0.00,,,0.00,WeatherCatV1.02B3,2013-06-09 21:47:00,
2013-06-09 17:52:00,76.3,57.4,30.09,West,273,4.0,6.0,52,0.00,,,0.00,WeatherCatV1.02B3,2013-06-09 21:52:00,
2013-06-09 17:57:00,76.2,56.7,30.09,SSW,205,0.0,3.0,51,0.00,,,0.00,WeatherCatV1.02B3,2013-06-09 21:57:00,
2013-06-09 18:02:00,76.2,56.7,30.09,West,281,0.0,7.0,51,0.00,,,0.00,WeatherCatV1.02B3,2013-06-09 22:02:00,
2013-06-09 18:07:00,76.1,56.6,30.09,NNW,339,3.0,8.0,51,0.00,,,0.00,WeatherCatV1.02B3,2013-06-09 22:07:00,
2013-06-09 18:12:00,75.9,55.9,30.09,WNW,284,5.0,5.0,50,0.00,,,0.00,WeatherCatV1.02B3,2013-06-09 22:12:00,
2013-06-09 18:17:00,75.6,56.2,30.09,WSW,242,0.0,5.0,51,0.00,,,0.00,WeatherCatV1.02B3,2013-06-09 22:17:00,
2013-06-09 18:22:00,75.4,56.5,30.10,WNW,288,4.0,6.0,52,0.00,,,0.00,WeatherCatV1.02B3,2013-06-09 22:22:00,
2013-06-09 18:27:00,75.7,56.8,30.09,WNW,300,6.0,7.0,52,0.00,,,0.00,WeatherCatV1.02B3,2013-06-09 22:27:00,
2013-06-09 18:32:00,75.8,55.3,30.10,WNW,295,4.0,5.0,49,0.00,,,0.00,WeatherCatV1.02B3,2013-06-09 22:32:00,
2013-06-09 18:37:00,75.8,55.8,30.10,West,278,0.0,4.0,50,0.00,,,0.00,WeatherCatV1.02B3,2013-06-09 22:37:00,
2013-06-09 18:42:00,75.8,55.8,30.10,West,279,4.0,5.0,50,0.00,,,0.00,WeatherCatV1.02B3,2013-06-09 22:42:00,
2013-06-09 18:47:00,75.7,55.7,30.10,West,260,0.0,4.0,50,0.00,,,0.00,WeatherCatV1.02B3,2013-06-09 22:47:00,
2013-06-09 18:52:00,75.6,56.2,30.10,West,260,0.0,3.0,51,0.00,,,0.00,WeatherCatV1.02B3,2013-06-09 22:52:00,
2013-06-09 18:57:00,75.5,56.1,30.10,West,263,3.0,4.0,51,0.00,,,0.00,WeatherCatV1.02B3,2013-06-09 22:57:00,
2013-06-09 19:02:00,75.3,56.4,30.10,West,263,0.0,4.0,52,0.00,,,0.00,WeatherCatV1.02B3,2013-06-09 23:02:00,
2013-06-09 19:07:00,75.1,56.3,30.11,West,277,1.0,1.0,52,0.00,,,0.00,WeatherCatV1.02B3,2013-06-09 23:07:00,
2013-06-09 19:12:00,74.8,55.4,30.11,West,273,5.0,8.0,51,0.00,,,0.00,WeatherCatV1.02B3,2013-06-09 23:12:00,
2013-06-09 19:17:00,74.5,55.7,30.11,WNW,287,0.0,0.0,52,0.00,,,0.00,WeatherCatV1.02B3,2013-06-09 23:17:00,
2013-06-09 19:22:00,74.3,56.6,30.11,WNW,287,0.0,1.0,54,0.00,,,0.00,WeatherCatV1.02B3,2013-06-09 23:22:00,
2013-06-09 19:27:00,74.0,57.3,30.11,WNW,287,0.0,1.0,56,0.00,,,0.00,WeatherCatV1.02B3,2013-06-09 23:27:00,
2013-06-09 19:32:00,73.7,58.0,30.12,WNW,287,0.0,0.0,58,0.00,,,0.00,WeatherCatV1.02B3,2013-06-09 23:32:00,
2013-06-09 19:37:00,73.4,57.7,30.12,WNW,287,0.0,0.0,58,0.00,,,0.00,WeatherCatV1.02B3,2013-06-09 23:37:00,
2013-06-09 19:42:00,73.0,57.3,30.12,WNW,287,0.0,0.0,58,0.00,,,0.00,WeatherCatV1.02B3,2013-06-09 23:42:00,
2013-06-09 19:47:00,72.6,58.4,30.12,WNW,287,0.0,0.0,61,0.00,,,0.00,WeatherCatV1.02B3,2013-06-09 23:47:00,
2013-06-09 19:52:00,72.1,58.3,30.12,WNW,287,0.0,0.0,62,0.00,,,0.00,WeatherCatV1.02B3,2013-06-09 23:52:00,
2013-06-09 19:57:00,71.6,58.8,30.12,WNW,287,0.0,0.0,64,0.00,,,0.00,WeatherCatV1.02B3,2013-06-09 23:57:00,
2013-06-09 20:02:00,71.2,59.2,30.12,WNW,287,0.0,0.0,66,0.00,,,0.00,WeatherCatV1.02B3,2013-06-10 00:02:00,
2013-06-09 20:07:00,70.7,59.2,30.12,WNW,287,0.0,0.0,67,0.00,,,0.00,WeatherCatV1.02B3,2013-06-10 00:07:00,
2013-06-09 20:12:00,70.3,59.2,30.12,WNW,287,0.0,0.0,68,0.00,,,0.00,WeatherCatV1.02B3,2013-06-10 00:12:00,
2013-06-09 20:17:00,69.7,58.7,30.12,WNW,287,0.0,0.0,68,0.00,,,0.00,WeatherCatV1.02B3,2013-06-10 00:17:00,
2013-06-09 20:22:00,69.1,58.9,30.12,WNW,287,0.0,0.0,70,0.00,,,0.00,WeatherCatV1.02B3,2013-06-10 00:22:00,
2013-06-09 20:27:00,68.5,58.7,30.13,WNW,287,0.0,0.0,71,0.00,,,0.00,WeatherCatV1.02B3,2013-06-10 00:27:00,
2013-06-09 20:32:00,68.0,58.6,30.13,WNW,287,0.0,0.0,72,0.00,,,0.00,WeatherCatV1.02B3,2013-06-10 00:32:00,
2013-06-09 20:37:00,67.5,58.1,30.13,WNW,287,0.0,0.0,72,0.00,,,0.00,WeatherCatV1.02B3,2013-06-10 00:37:00,
2013-06-09 20:43:00,66.9,58.3,30.13,WNW,287,0.0,0.0,74,0.00,,,0.00,WeatherCatV1.02B3,2013-06-10 00:43:00,
2013-06-09 20:48:00,66.2,57.7,30.13,WNW,287,0.0,0.0,74,0.00,,,0.00,WeatherCatV1.02B3,2013-06-10 00:48:00,
2013-06-09 20:53:00,65.9,57.7,30.13,WNW,287,0.0,0.0,75,0.00,,,0.00,WeatherCatV1.02B3,2013-06-10 00:53:00,
2013-06-09 20:58:00,65.6,58.2,30.14,WNW,287,0.0,1.0,77,0.00,,,0.00,WeatherCatV1.02B3,2013-06-10 00:58:00,
2013-06-09 21:03:00,65.3,57.9,30.14,WNW,287,0.0,0.0,77,0.00,,,0.00,WeatherCatV1.02B3,2013-06-10 01:03:00,
2013-06-09 21:08:00,65.1,58.1,30.14,WNW,287,0.0,0.0,78,0.00,,,0.00,WeatherCatV1.02B3,2013-06-10 01:08:00,
2013-06-09 21:13:00,64.7,57.7,30.14,WNW,287,0.0,1.0,78,0.00,,,0.00,WeatherCatV1.02B3,2013-06-10 01:13:00,
2013-06-09 21:18:00,64.4,57.7,30.14,WNW,287,0.0,0.0,79,0.00,,,0.00,WeatherCatV1.02B3,2013-06-10 01:18:00,
2013-06-09 21:23:00,64.1,57.4,30.15,WNW,287,0.0,0.0,79,0.00,,,0.00,WeatherCatV1.02B3,2013-06-10 01:23:00,
2013-06-09 21:28:00,63.9,57.3,30.15,WNW,287,0.0,0.0,79,0.00,,,0.00,WeatherCatV1.02B3,2013-06-10 01:28:00,
2013-06-09 21:33:00,63.7,57.1,30.15,WNW,287,0.0,0.0,79,0.00,,,0.00,WeatherCatV1.02B3,2013-06-10 01:33:00,
2013-06-09 21:38:00,63.5,56.9,30.15,WNW,287,0.0,1.0,79,0.00,,,0.00,WeatherCatV1.02B3,2013-06-10 01:38:00,
2013-06-09 21:43:00,63.3,56.3,30.16,WNW,287,2.0,3.0,78,0.00,,,0.00,WeatherCatV1.02B3,2013-06-10 01:43:00,
2013-06-09 21:48:00,63.3,56.3,30.16,WNW,287,0.0,2.0,78,0.00,,,0.00,WeatherCatV1.02B3,2013-06-10 01:48:00,
2013-06-09 21:53:00,63.3,56.0,30.16,WNW,287,0.0,1.0,77,0.00,,,0.00,WeatherCatV1.02B3,2013-06-10 01:53:00,
2013-06-09 21:58:00,63.3,56.0,30.17,WNW,287,0.0,1.0,77,0.00,,,0.00,WeatherCatV1.02B3,2013-06-10 01:58:00,
2013-06-09 22:03:00,63.3,55.6,30.17,WNW,287,0.0,1.0,76,0.00,,,0.00,WeatherCatV1.02B3,2013-06-10 02:03:00,
2013-06-09 22:08:00,63.4,55.7,30.17,WNW,287,0.0,0.0,76,0.00,,,0.00,WeatherCatV1.02B3,2013-06-10 02:08:00,
2013-06-09 22:13:00,63.4,55.7,30.17,WNW,287,0.0,4.0,76,0.00,,,0.00,WeatherCatV1.02B3,2013-06-10 02:13:00,
2013-06-09 22:18:00,63.4,55.7,30.17,WNW,287,0.0,0.0,76,0.00,,,0.00,WeatherCatV1.02B3,2013-06-10 02:18:00,
2013-06-09 22:23:00,63.6,55.5,30.17,WNW,287,0.0,3.0,75,0.00,,,0.00,WeatherCatV1.02B3,2013-06-10 02:23:00,
2013-06-09 22:28:00,63.6,55.5,30.17,WNW,287,2.0,2.0,75,0.00,,,0.00,WeatherCatV1.02B3,2013-06-10 02:28:00,
2013-06-09 22:33:00,63.6,55.5,30.17,WNW,287,3.0,4.0,75,0.00,,,0.00,WeatherCatV1.02B3,2013-06-10 02:33:00,
2013-06-09 22:38:00,63.7,55.6,30.17,WNW,287,3.0,3.0,75,0.00,,,0.00,WeatherCatV1.02B3,2013-06-10 02:38:00,
2013-06-09 22:43:00,63.6,55.5,30.17,WNW,287,0.0,1.0,75,0.00,,,0.00,WeatherCatV1.02B3,2013-06-10 02:43:00,
2013-06-09 22:48:00,63.6,55.5,30.17,WNW,287,0.0,1.0,75,0.00,,,0.00,WeatherCatV1.02B3,2013-06-10 02:48:00,
2013-06-09 22:53:00,63.5,55.4,30.18,WNW,287,0.0,5.0,75,0.00,,,0.00,WeatherCatV1.02B3,2013-06-10 02:53:00,
2013-06-09 22:58:00,63.4,55.7,30.17,WNW,287,0.0,3.0,76,0.00,,,0.00,WeatherCatV1.02B3,2013-06-10 02:58:00,
2013-06-09 23:03:00,63.4,55.3,30.17,WNW,287,1.0,3.0,75,0.00,,,0.00,WeatherCatV1.02B3,2013-06-10 03:03:00,
2013-06-09 23:08:00,63.3,55.6,30.17,WNW,287,0.0,2.0,76,0.00,,,0.00,WeatherCatV1.02B3,2013-06-10 03:08:00,
2013-06-09 23:13:00,63.2,55.9,30.17,WNW,287,0.0,1.0,77,0.00,,,0.00,WeatherCatV1.02B3,2013-06-10 03:13:00,
2013-06-09 23:18:00,63.0,55.7,30.18,WNW,287,0.0,0.0,77,0.00,,,0.00,WeatherCatV1.02B3,2013-06-10 03:18:00,
2013-06-09 23:23:00,62.8,55.5,30.18,WNW,287,2.0,3.0,77,0.00,,,0.00,WeatherCatV1.02B3,2013-06-10 03:23:00,
2013-06-09 23:28:00,62.7,55.7,30.18,WNW,287,0.0,1.0,78,0.00,,,0.00,WeatherCatV1.02B3,2013-06-10 03:28:00,
2013-06-09 23:33:00,62.5,55.9,30.18,WNW,287,0.0,0.0,79,0.00,,,0.00,WeatherCatV1.02B3,2013-06-10 03:33:00,
2013-06-09 23:38:00,62.3,55.7,30.18,WNW,287,0.0,0.0,79,0.00,,,0.00,WeatherCatV1.02B3,2013-06-10 03:38:00,
2013-06-09 23:43:00,62.1,55.9,30.17,WNW,287,0.0,0.0,80,0.00,,,0.00,WeatherCatV1.02B3,2013-06-10 03:43:00,
2013-06-09 23:48:00,62.0,56.1,30.18,WNW,287,0.0,0.0,81,0.00,,,0.00,WeatherCatV1.02B3,2013-06-10 03:48:00,
2013-06-09 23:53:00,61.8,55.9,30.18,WNW,287,0.0,0.0,81,0.00,,,0.00,WeatherCatV1.02B3,2013-06-10 03:53:00,
2013-06-09 23:58:00,61.6,56.0,30.18,WNW,287,0.0,2.0,82,0.00,,,0.00,WeatherCatV1.02B3,2013-06-10 03:58:00,